Location: *
(24.1434°N, 56.8729°E)
Time: 07:57:12
(UTC+00:00)

SJ-6B - Pass Details

Date: 09 April 2020
Orbit: 509 x 582 km, 97.6° (Epoch: 24 May)

Event Time Altitude Azimuth Distance (km) Brightness Sun altitude
Exits shadow 15:27:14 18° 82° (E) 1,435 4.4 -13.2°
Maximum altitude 15:27:43 19° 73° (ENE) 1,420 4.4 -13.3°
Drops below altitude 10° 15:30:35 10° 28° (NNE) 1,899 5.4 -13.9°
Sets 15:33:15 0° 10° (N) 2,802 6.5 -14.5°
